AAUSAT 4 (41460 NORAD) Tracking and Keplerian Element Data

This shows tracking and keplerian element data for the satellite.

Feedback or suggestion? Click here.




ElementValue
Catalog41460
NameAAUSAT 4
Epoch Orbit18163
Epoch Day229.19155851
Epoch Year2019
RAAN320.0832
Inclination98.0982
Eccentricity0.0158218
Argument of Perigee150.2912
Mean Anonmoly210.7416
Mean Motion15.07481059
Decay Rate2.73E-05
L11 41460U 16025E 19229.19155851 .00002730 00000-0 13904-3 0 9999
L22 41460 98.0982 320.0832 0158218 150.2912 210.7416 15.07481059181636

Live tracking and technical data element details for AAUSAT 4 (NORAD 41460). AAUSAT 4 can be tracked NOW for your location showing map with azimuth and elevation plus other details from your city location.

Track the satellite on the map from your city or location and see movement details for azimuth, elevation, latitude, longitude, range, height, and movement on the map or in text.







IsCatalogInMostPopularTable: catalog: 41460, numindb: 196
Update: records affected: 1



GetName: 41460 AAUSAT 4

Hit Count: updated at: Tue, 20 Aug 2019 18:57:45 GMT